This is the latest recevied weather packets stored in our database for station/object DL7HMX-13. If no packets are shown the sender has not sent any weather packets the latest 10 day(s).
| Time | Temp. | Humidity | Pressure | Rain* | Wind** | Luminosity | Snow |
|---|---|---|---|---|---|---|---|
| 1777803627 | 25.56° C | 37% | 1015.1 hPa | 0 mm | - | 644 W/m² | - |
| 1777803030 | 25° C | 38% | 1015.2 hPa | 0 mm | - | 630 W/m² | - |
| 1777802443 | 24.44° C | 39% | 1015.2 hPa | 0 mm | - | 622 W/m² | - |
| 1777801816 | 24.44° C | 40% | 1015.4 hPa | 0 mm | - | 605 W/m² | - |
| 1777801220 | 23.89° C | 41% | 1015.7 hPa | 0 mm | - | 589 W/m² | - |
| 1777800622 | 22.78° C | 42% | 1015.7 hPa | 0 mm | - | 593 W/m² | - |
| 1777800025 | 22.22° C | 42% | 1016 hPa | 0 mm | - | 532 W/m² | - |
| 1777799428 | 22.22° C | 43% | 1016 hPa | 0 mm | - | 534 W/m² | - |
| 1777798831 | 21.67° C | 43% | 1016.1 hPa | 0 mm | - | 532 W/m² | - |
| 1777798219 | 22.22° C | 43% | 1016.1 hPa | 0 mm | - | 533 W/m² | - |
| 1777797629 | 21.67° C | 43% | 1016.3 hPa | 0 mm | - | 577 W/m² | - |
| 1777797016 | 20.56° C | 44% | 1016.3 hPa | 0 mm | - | 536 W/m² | - |
| 1777796418 | 19.44° C | 46% | 1016.6 hPa | 0 mm | - | 544 W/m² | - |
| 1777795822 | 18.33° C | 49% | 1016.5 hPa | 0 mm | - | 489 W/m² | - |
| 1777795225 | 17.78° C | 51% | 1016.6 hPa | 0 mm | - | 441 W/m² | - |
| 1777794628 | 17.78° C | 58% | 1016.6 hPa | 0 mm | - | 412 W/m² | - |
| 1777794031 | 16.67° C | 59% | 1016.5 hPa | 0 mm | - | 414 W/m² | - |
| 1777793417 | 16.67° C | 62% | 1016.6 hPa | 0 mm | - | 386 W/m² | - |
| 1777792821 | 15.56° C | 63% | 1016.6 hPa | 0 mm | - | 337 W/m² | - |
| 1777792223 | 15° C | 64% | 1016.7 hPa | 0 mm | - | 358 W/m² | - |
| 1777791627 | 15° C | 63% | 1016.9 hPa | 0 mm | - | 337 W/m² | - |
| 1777791030 | 13.33° C | 66% | 1016.9 hPa | 0 mm | - | 286 W/m² | - |
| 1777790417 | 13.33° C | 66% | 1016.9 hPa | 0 mm | - | 282 W/m² | - |
| 1777789819 | 12.22° C | 70% | 1017 hPa | 0 mm | - | 260 W/m² | - |
| 1777789223 | 12.22° C | 71% | 1017 hPa | 0 mm | - | 228 W/m² | - |
* Rain latest hour (hover to see other rain measurements)
** Current wind speed in m/s (hover to see current wind gust speed)